Chester, MD

12:00 PM EST on February 12, 2016 (GMT -0500)
Stevensville

Weather History for KW29 - December, 2011

Change the Weather History Date:

Wednesday, December 7, 2011

  Actual Average (KESN) Record (KESN)
Temperature  
Mean Temperature 55 °F -  
Max Temperature 60 °F 54 °F 72 °F (1951)
Min Temperature 48 °F 32 °F 19 °F (2007)
Degree Days  
Heating Degree Days 10    
Growing Degree Days 5 (Base 50)    
Moisture  
Dew Point 56 °F    
Average Humidity 100    
Maximum Humidity 100    
Minimum Humidity 100    
Precipitation  
Precipitation 0.00 in - - ()
Sea Level Pressure  
Sea Level Pressure 29.74 in    
Wind  
Wind Speed 6 mph (South)    
Max Wind Speed 20 mph    
Max Gust Speed 20 mph    
Visibility 4 miles    
Events      
Averages and records for this station are not official NWS values.
T = Trace of Precipitation, MM = Missing Value Source: NWS Daily Summary

Daily Weather History Graph

Daily Weather History Graph

Search for Another Location

Airport or City:

Trip Planner

Search our weather history database for the weather conditions in past years. The results will help you decide how hot, cold, wet, or windy it might be!

Date:

Astronomy

Dec. 07, 2011 Rise Set
Actual Time 7:10 AM EST 4:42 PM EST
Civil Twilight 6:40 AM EST 5:12 PM EST
Nautical Twilight 6:07 AM EST 5:45 PM EST
Astronomical Twilight 5:35 AM EST 6:18 PM EST
Moon 2:42 PM EST (12/7) 4:24 AM EST (12/7)
Length of Visible Light 10h 31m
Length of Day
9h 32m
Waxing Gibbous, 92% of the Moon is Illuminated
Dec 7
Waxing Gibbous
Dec 10
Full
Dec 17
Last Quarter
Dec 24
New
Jan 1
First Quarter

Hourly Weather History & Observations

Time (EST) Temp. Windchill Dew Point Humidity Pressure Visibility Wind Dir Wind Speed Gust Speed Precip Events Conditions
12:14 AM 57.2 °F - 57.2 °F 100% 29.91 in 7.0 mi North 6.9 mph - N/A   Scattered Clouds
12:33 AM 59.0 °F - 59.0 °F 100% 29.90 in 10.0 mi North 6.9 mph - N/A   Mostly Cloudy
12:52 AM 59.0 °F - 59.0 °F 100% 29.90 in 10.0 mi North 9.2 mph - N/A   Mostly Cloudy
1:12 AM 60.8 °F - 60.8 °F 100% 29.90 in 10.0 mi North 5.8 mph - N/A   Overcast
1:31 AM 60.8 °F - 60.8 °F 100% 29.89 in 10.0 mi North 3.5 mph - N/A   Overcast
1:50 AM 59.0 °F - 59.0 °F 100% 29.89 in 10.0 mi North 4.6 mph - N/A   Overcast
2:10 AM 59.0 °F - 59.0 °F 100% 29.89 in 10.0 mi North 6.9 mph - N/A   Overcast
2:29 AM 60.8 °F - 60.8 °F 100% 29.89 in 10.0 mi North 6.9 mph - N/A   Overcast
2:48 AM 60.8 °F - 60.8 °F 100% 29.89 in 10.0 mi North 5.8 mph - N/A   Overcast
3:08 AM 60.8 °F - 60.8 °F 100% 29.87 in 10.0 mi North 5.8 mph - N/A   Overcast
3:27 AM 60.8 °F - 60.8 °F 100% 29.87 in 5.0 mi North 5.8 mph - N/A   Overcast
3:46 AM 59.0 °F - 59.0 °F 100% 29.87 in 3.0 mi North 5.8 mph - N/A   Overcast
4:06 AM 59.0 °F - 59.0 °F 100% 29.86 in 5.0 mi North 4.6 mph - N/A   Overcast
4:25 AM 59.0 °F - 59.0 °F 100% 29.86 in 4.0 mi North 4.6 mph - N/A   Overcast
4:44 AM 59.0 °F - 59.0 °F 100% 29.84 in 4.0 mi North 4.6 mph - N/A   Overcast
5:04 AM 57.2 °F - 57.2 °F 100% 29.83 in 4.0 mi North 4.6 mph - N/A   Overcast
5:23 AM 57.2 °F - 57.2 °F 100% 29.82 in 3.0 mi North 3.5 mph - N/A   Overcast
5:42 AM 59.0 °F - 59.0 °F 100% 29.84 in 2.5 mi North 6.9 mph - N/A   Overcast
6:02 AM 59.0 °F - 59.0 °F 100% 29.84 in 2.0 mi Calm Calm - N/A   Overcast
6:21 AM 59.0 °F - 59.0 °F 100% 29.83 in 1.5 mi Calm Calm - N/A   Overcast
6:40 AM 57.2 °F - 57.2 °F 100% 29.84 in 2.5 mi Calm Calm - N/A   Overcast
7:00 AM 57.2 °F - 57.2 °F 100% 29.83 in 2.5 mi North 3.5 mph - N/A   Overcast
7:19 AM 59.0 °F - 59.0 °F 100% 29.83 in 2.0 mi North 5.8 mph - N/A   Overcast
7:38 AM 59.0 °F - 59.0 °F 100% 29.82 in 1.2 mi Calm Calm - N/A   Overcast
7:58 AM 59.0 °F - 59.0 °F 100% 29.83 in 2.0 mi Calm Calm - N/A   Overcast
8:17 AM 59.0 °F - 59.0 °F 100% 29.82 in 4.0 mi North 3.5 mph - N/A   Overcast
8:36 AM 59.0 °F - 59.0 °F 100% 29.80 in 5.0 mi North 5.8 mph - N/A   Overcast
8:55 AM 59.0 °F - 59.0 °F 100% 29.81 in 5.0 mi Calm Calm - N/A   Overcast
9:15 AM 59.0 °F - 59.0 °F 100% 29.79 in 3.0 mi North 8.1 mph - N/A   Overcast
9:34 AM 55.4 °F - 55.4 °F 100% 29.79 in 2.0 mi North 4.6 mph - N/A   Overcast
9:53 AM 55.4 °F - 55.4 °F 100% 29.80 in 2.5 mi North 3.5 mph - N/A   Overcast
10:13 AM 55.4 °F - 55.4 °F 100% 29.79 in 2.5 mi North 4.6 mph - N/A   Overcast
10:32 AM 53.6 °F - 53.6 °F 100% 29.77 in 1.5 mi North 5.8 mph - N/A   Overcast
10:51 AM 53.6 °F - 53.6 °F 100% 29.77 in 1.5 mi North 5.8 mph - N/A   Overcast
11:11 AM 55.4 °F - 55.4 °F 100% 29.75 in 1.5 mi North - - N/A   Overcast
11:30 AM 53.6 °F - 53.6 °F 100% 29.74 in 1.2 mi North 6.9 mph - N/A   Overcast
11:49 AM 53.6 °F - 53.6 °F 100% 29.72 in 1.0 mi North 9.2 mph - N/A   Overcast
12:08 PM 55.4 °F - 55.4 °F 100% 29.71 in 3.0 mi North 5.8 mph - N/A   Overcast
12:28 PM 55.4 °F - 55.4 °F 100% 29.69 in 2.5 mi North 5.8 mph - N/A   Overcast
12:47 PM 55.4 °F - 55.4 °F 100% 29.67 in 1.8 mi North 6.9 mph - N/A   Overcast
1:06 PM 53.6 °F - 53.6 °F 100% 29.66 in 1.8 mi North - - N/A   Overcast
1:26 PM 53.6 °F - 53.6 °F 100% 29.65 in 2.0 mi North 5.8 mph - N/A   Overcast
1:45 PM 53.6 °F - 53.6 °F 100% 29.64 in 2.0 mi North - - N/A   Overcast
2:04 PM 53.6 °F - 53.6 °F 100% 29.63 in 2.0 mi North 4.6 mph - N/A   Overcast
2:24 PM 51.8 °F - 51.8 °F 100% 29.63 in 1.2 mi North 11.5 mph - N/A   Overcast
2:43 PM 51.8 °F - 51.8 °F 100% 29.63 in 2.0 mi North 9.2 mph - N/A   Overcast
3:02 PM 51.8 °F - 51.8 °F 100% 29.62 in 2.0 mi North 9.2 mph - N/A   Overcast
3:21 PM 51.8 °F - 51.8 °F 100% 29.61 in 2.5 mi North - - N/A   Overcast
3:41 PM 51.8 °F - 51.8 °F 100% 29.60 in 2.5 mi North - - N/A   Overcast
4:00 PM 51.8 °F - 51.8 °F 100% 29.60 in 2.5 mi North - - N/A   Overcast
4:19 PM 51.8 °F - 51.8 °F 100% 29.57 in 5.0 mi North - - N/A   Overcast
4:39 PM 51.8 °F - 51.8 °F 100% 29.55 in 3.0 mi North - - N/A   Overcast
4:58 PM 51.8 °F - 51.8 °F 100% 29.53 in 4.0 mi North - - N/A   Overcast
5:17 PM 51.8 °F - 51.8 °F 100% 29.54 in 2.5 mi North 10.4 mph - N/A   Overcast
5:36 PM 51.8 °F - 51.8 °F 100% 29.58 in 3.0 mi North 11.5 mph 19.6 mph N/A   Overcast
5:56 PM 51.8 °F - 51.8 °F 100% 29.53 in 4.0 mi North 11.5 mph 16.1 mph N/A   Overcast
6:15 PM 50.0 °F - 50.0 °F 100% 29.53 in 7.0 mi North 13.8 mph - N/A   Overcast
6:34 PM 50.0 °F - 50.0 °F 100% 29.51 in 4.0 mi North 13.8 mph - N/A   Overcast
6:53 PM 50.0 °F - 50.0 °F 100% 29.50 in 5.0 mi North - - N/A   Overcast
7:13 PM 48.2 °F - 48.2 °F 100% 29.49 in 4.0 mi North 19.6 mph - N/A   Overcast
7:32 PM 46.4 °F 38.3 °F 46.4 °F 100% 29.55 in 1.5 mi North 23.0 mph - N/A   Overcast
7:51 PM 46.4 °F - 46.4 °F 100% 29.58 in 2.0 mi North - - N/A   Overcast
8:30 PM 44.6 °F - 44.6 °F 100% 29.56 in 4.0 mi North - - N/A   Overcast
8:49 PM 44.6 °F 36.4 °F 44.6 °F 100% 29.58 in 4.0 mi North 20.7 mph - N/A   Overcast
9:08 PM 44.6 °F - 44.6 °F 100% 29.61 in 3.0 mi North - - N/A   Overcast
9:28 PM 44.6 °F - 44.6 °F 100% 29.61 in 2.5 mi North - - N/A   Overcast
9:47 PM 42.8 °F - 42.8 °F 100% 29.62 in 4.0 mi North - - N/A   Overcast
10:06 PM 42.8 °F - 42.8 °F 100% 29.63 in 5.0 mi North - - N/A   Overcast
10:26 PM 41.0 °F - 41.0 °F 100% 29.63 in 5.0 mi North - - N/A   Overcast
10:45 PM 41.0 °F - 41.0 °F 100% 29.69 in 5.0 mi North - - N/A   Overcast
11:04 PM 41.0 °F - 41.0 °F 100% 29.67 in 5.0 mi North - - N/A   Overcast
11:24 PM 39.2 °F - 39.2 °F 100% 29.72 in 5.0 mi North - - N/A   Overcast
11:43 PM 37.4 °F - 37.4 °F 100% 29.76 in 5.0 mi North - - N/A   Overcast